Location: Kuffner-Sternwarte
(48.2130°N, 16.2960°E)
Time: 22:07:39
(UTC+01:00)

COROT - Pass Details

Date: 16 January 2018
Orbit: 599 x 890 km, 90.0° (Epoch: 19 January)

Event Time Altitude Azimuth Distance (km) Brightness Sun altitude
Rises 04:09:49 0° 13° (NNE) 2,860 9.2 -34.4°
Enters shadow 04:10:39 - 17° (NNE) 2,552 9.0 -34.3°
Exits shadow 04:13:32 15° 41° (NE) 1,635 8.1 -33.8°
Maximum altitude 04:15:45 22° 81° (E) 1,333 7.8 -33.4°
Drops below altitude 10° 04:19:09 10° 134° (SE) 1,983 8.6 -32.9°
Sets 04:21:47 0° 149° (SSE) 2,917 9.3 -32.4°
